Theta_e
322 323 324 323 324 328 331 330 335 338 336 338 340 337 333 331 330 328 329 327 326 327 325 326 326 326 327 328 330 332 333 333 334 340 340 336 335 334 334 337 335 335 336 335 338 339 339 337 334 329 326 324 315 311 310 314 317 318 316 312 315 315 311 310 309 312 317 317 316 321 326 328 328 330 331 332 332 333 334 333 333 332 331 330 328 328 331 332 331 327 324 327 329 328 329 329 328
320 322 324 323 323 327 331 332 338 339 336 338 339 337 335 332 329 330 332 330 327 326 326 326 326 326 326 327 329 333 336 334 333 335 335 334 334 334 335 339 337 336 335 334 337 339 339 338 335 331 329 325 315 311 310 311 315 316 313 312 316 312 309 313 311 313 317 315 318 325 326 327 330 331 332 333 333 333 334 334 334 333 333 332 331 329 330 332 332 328 327 329 330 331 331 330 329
317 320 323 324 324 328 332 334 339 338 336 340 340 335 334 330 330 332 330 328 326 326 326 326 326 327 326 328 330 334 338 336 335 333 333 333 333 333 336 339 340 339 336 333 336 338 338 338 335 332 331 324 314 311 310 309 310 312 312 313 315 309 309 314 312 312 314 317 324 326 324 328 331 332 333 334 334 334 334 334 334 334 334 333 333 331 328 329 332 331 330 332 332 332 331 330 328
314 318 322 324 327 331 337 339 341 341 338 340 340 335 333 330 330 329 326 325 325 325 326 325 327 328 329 330 331 337 338 336 334 333 332 333 333 333 335 338 341 341 338 334 334 337 338 338 335 333 330 321 314 311 310 309 309 310 313 315 311 308 308 309 308 310 316 323 327 325 326 329 331 333 333 333 334 335 335 335 335 335 334 333 334 333 329 325 327 330 332 333 332 332 331 329 327
312 318 323 325 330 332 336 338 340 340 337 340 340 339 335 329 329 327 324 324 325 325 325 325 328 329 329 329 331 339 339 336 335 334 332 332 334 333 334 337 341 342 339 335 334 336 338 338 335 334 329 319 315 311 309 309 309 311 316 315 309 310 310 308 309 314 321 327 327 327 329 331 332 333 334 334 335 335 335 335 335 335 334 334 334 334 332 327 325 325 328 331 331 330 329 328 325
312 320 324 326 329 329 334 338 339 338 336 338 340 340 335 329 328 326 323 325 325 325 325 325 328 327 329 333 335 339 338 337 335 333 332 331 332 332 333 337 340 341 340 337 335 336 338 337 335 334 327 318 314 310 309 310 310 311 313 312 311 314 313 312 314 318 323 327 329 329 331 332 333 333 334 334 335 335 335 335 335 335 334 334 334 333 331 326 323 323 324 326 328 328 326 325 324
315 323 325 328 329 328 335 339 339 339 336 335 336 336 333 330 329 327 326 326 326 326 326 326 326 326 329 333 335 338 336 337 336 333 332 330 331 332 333 336 339 341 341 337 335 337 338 337 335 333 324 317 313 309 310 311 310 309 311 312 315 318 317 318 319 321 324 328 330 330 332 333 332 333 334 334 335 335 335 335 335 335 334 334 333 332 330 326 324 323 322 322 325 324 321 322 324
316 324 325 331 333 329 335 337 335 337 338 333 331 332 330 329 329 330 330 327 327 326 326 327 325 326 328 329 334 338 338 339 336 331 331 330 330 332 332 335 338 340 339 336 335 337 337 336 335 330 322 315 311 309 311 312 311 309 310 315 318 321 322 324 325 326 328 330 331 331 332 332 331 331 332 333 334 334 334 335 334 334 334 333 332 330 327 325 323 321 321 321 323 322 319 321 324
316 324 325 330 334 332 335 335 332 332 334 331 327 327 326 327 327 328 330 328 328 326 326 327 326 326 327 332 336 338 339 339 335 330 331 331 331 331 332 334 336 339 337 334 335 337 337 336 333 327 320 314 310 310 312 313 311 310 313 317 320 323 326 328 329 329 330 331 332 332 333 332 330 329 330 331 332 333 333 333 333 332 332 331 329 326 321 317 316 315 317 318 320 322 321 319 322
318 324 325 328 333 333 334 334 333 331 330 328 326 326 325 325 324 325 327 328 329 326 327 326 327 325 327 336 338 337 337 335 333 331 332 332 332 332 332 334 337 338 335 333 335 337 338 336 331 324 319 313 309 310 312 314 313 312 314 317 320 325 329 330 330 331 331 332 332 332 332 333 331 329 328 329 330 331 331 331 330 329 328 327 324 320 316 313 312 312 312 314 315 318 321 318 318
319 321 322 328 332 332 333 331 332 333 330 327 324 324 323 322 323 324 325 327 328 327 327 326 327 326 329 337 339 337 335 333 332 331 332 333 333 334 333 336 338 339 336 333 334 337 338 336 329 323 319 312 309 311 313 316 317 317 317 318 321 326 329 329 331 331 332 333 333 333 333 333 332 330 328 327 327 327 328 328 327 325 323 320 318 316 314 313 312 311 309 311 312 314 319 316 315
320 321 324 329 331 331 330 329 329 330 329 326 323 321 320 321 322 321 323 326 328 328 327 326 328 326 330 337 340 337 334 334 334 332 332 334 335 336 337 338 339 340 338 334 334 336 337 335 328 323 320 313 310 311 314 316 319 321 321 322 324 328 329 329 331 331 332 333 333 333 333 333 332 331 329 327 325 324 324 323 321 319 318 317 317 317 315 313 310 311 312 311 311 312 317 317 314
318 319 326 328 328 330 327 328 329 326 325 323 319 318 317 321 320 316 320 324 327 329 329 328 327 327 333 337 340 338 336 335 335 334 333 334 337 339 339 340 341 341 339 335 334 336 337 335 328 323 321 315 313 311 313 317 321 324 324 326 327 329 330 330 331 331 332 333 333 334 333 333 333 332 331 330 326 321 320 320 319 318 319 319 319 317 315 313 310 313 315 313 313 311 313 316 314
314 315 323 324 323 326 325 325 325 321 322 319 315 315 316 320 318 316 318 320 325 329 328 329 326 329 338 339 340 338 337 336 335 337 335 336 338 340 340 341 342 341 340 337 334 335 337 336 329 324 322 318 316 312 312 317 321 325 326 327 328 329 330 331 331 332 332 333 333 334 333 334 333 333 333 332 329 324 324 325 325 324 322 319 317 316 314 313 311 314 317 315 313 311 310 313 313
313 313 322 323 320 322 323 323 321 319 321 317 313 312 314 317 317 317 316 316 323 327 327 328 327 330 336 340 341 338 338 337 335 338 338 337 339 340 341 341 342 341 340 339 336 335 335 336 329 324 324 321 320 315 310 314 320 324 326 328 329 330 331 331 332 332 333 333 333 333 333 334 333 334 333 333 331 329 329 328 327 326 323 319 316 314 312 312 310 314 319 316 313 311 310 310 311
311 315 324 324 320 321 320 320 320 322 321 314 311 310 311 315 315 315 315 317 321 326 327 328 330 332 331 335 336 334 339 338 335 338 339 338 339 341 342 341 341 341 340 340 338 337 335 335 331 325 325 324 323 319 311 311 316 323 326 327 329 330 331 331 333 333 333 334 334 334 333 334 334 334 334 333 331 330 328 327 326 325 323 320 316 312 309 310 310 314 318 316 314 310 309 310 309
310 318 326 325 323 321 318 317 315 317 317 311 309 309 310 313 314 314 317 319 321 324 324 323 330 336 334 334 335 335 339 338 336 338 340 340 340 341 341 341 341 341 340 340 339 338 336 335 333 327 325 326 324 322 317 312 312 317 324 327 329 329 331 332 333 333 334 334 334 334 334 333 334 334 333 332 330 328 326 325 324 323 321 318 315 311 309 309 309 314 318 318 317 312 309 309 308
311 321 325 324 322 316 312 312 308 310 311 308 308 309 310 311 311 313 316 318 319 319 318 319 326 334 339 340 338 339 339 337 336 337 339 339 340 341 341 341 341 341 340 340 339 339 338 336 335 330 326 327 326 325 322 318 313 312 316 323 327 328 330 331 333 334 334 335 334 334 334 333 333 333 332 330 328 325 323 321 320 318 316 314 312 309 309 309 309 312 316 318 319 315 311 309 309
309 317 324 319 312 308 307 308 307 308 309 308 309 309 310 310 309 311 312 312 315 314 313 316 318 322 332 341 341 341 341 337 337 338 337 337 338 339 340 341 341 341 340 340 339 339 339 337 336 334 329 326 327 327 325 324 319 314 312 314 320 324 327 329 331 333 334 334 334 334 334 333 333 332 331 328 323 319 317 315 314 313 311 310 310 309 309 310 310 310 312 316 317 315 312 310 309
306 312 317 311 305 305 306 307 306 307 307 307 308 308 309 309 309 310 309 310 314 311 310 312 313 313 318 333 341 340 340 338 337 340 339 337 337 338 338 340 340 340 340 340 340 339 339 337 336 336 333 328 327 328 328 327 325 319 314 311 311 314 319 324 327 330 332 333 333 333 332 332 331 330 327 322 316 313 312 311 310 310 309 309 309 309 309 309 310 310 310 314 315 313 311 310 309
305 308 308 304 303 304 305 306 306 305 305 306 306 308 309 308 308 309 309 312 314 310 310 310 310 312 312 324 337 337 338 339 337 339 340 340 340 339 339 339 339 340 340 340 340 339 338 337 336 336 336 332 328 329 329 329 328 325 319 314 311 309 310 313 316 319 323 326 328 328 327 326 324 321 318 313 310 309 308 308 308 309 308 308 309 308 308 309 309 309 310 311 311 311 310 309 309
305 305 303 303 304 304 305 305 305 304 304 304 305 308 308 306 306 307 309 310 311 309 309 310 311 313 312 318 331 335 335 337 337 338 340 340 340 341 340 340 340 340 340 340 339 339 338 337 336 336 336 334 330 329 331 330 330 330 326 322 318 315 313 310 308 310 311 314 315 316 316 315 313 311 310 308 308 308 307 307 308 309 308 308 308 308 308 308 308 308 309 311 310 310 309 308 308
306 305 303 304 304 304 305 304 304 304 304 304 305 306 306 305 305 306 307 307 307 307 307 310 312 312 312 316 328 334 332 333 335 335 338 339 339 340 340 340 340 340 340 339 339 339 338 337 336 336 335 334 332 330 331 332 332 332 331 330 328 326 323 317 313 309 308 308 309 309 309 308 308 308 308 308 308 307 307 307 307 308 308 308 309 308 308 307 308 308 309 310 311 310 309 309 309
306 305 303 304 304 304 304 304 304 303 303 304 304 305 305 305 306 305 306 305 305 306 306 308 309 310 311 313 321 326 327 330 331 331 333 334 336 337 338 339 339 339 339 339 339 338 338 337 336 336 334 333 332 331 331 333 333 333 333 333 332 331 330 327 324 319 314 310 308 308 308 308 308 308 308 308 308 308 307 307 308 309 309 310 310 309 308 308 307 308 308 309 310 310 309 309 309
305 305 304 303 304 304 304 304 304 303 303 303 304 304 304 305 306 306 306 306 307 308 308 308 307 308 311 312 316 319 322 327 328 329 330 330 331 333 336 338 338 339 338 338 338 337 337 336 336 336 335 333 331 331 331 332 333 334 334 334 334 333 333 332 331 328 325 319 314 309 308 308 308 308 308 308 307 307 307 308 309 311 312 313 312 309 308 308 307 308 309 309 310 310 309 308 308
305 305 304 303 304 304 305 304 303 303 302 302 304 304 305 306 307 308 308 308 309 309 310 310 309 308 309 310 314 318 322 323 325 327 331 332 331 330 333 336 337 337 336 336 335 335 334 335 336 336 336 335 333 332 332 333 334 335 335 335 334 334 334 334 333 332 330 328 324 318 311 308 308 309 309 308 308 307 309 311 313 314 314 314 312 309 308 308 308 308 308 309 309 309 308 308 307
305 305 304 304 304 305 304 303 302 303 302 302 305 306 306 306 308 310 310 309 310 310 310 310 310 310 309 308 312 318 320 319 322 327 331 333 332 331 333 335 336 336 335 336 335 335 334 334 335 337 336 336 335 335 334 334 334 335 335 335 335 335 335 334 334 333 332 331 329 327 320 313 311 311 310 309 308 308 311 314 315 316 315 314 313 309 309 310 310 308 308 308 309 309 309 309 308
305 305 306 305 303 303 303 302 303 302 303 303 304 307 308 307 309 310 308 308 309 309 310 310 310 310 309 308 310 316 314 313 318 323 327 332 333 332 334 335 335 335 336 336 336 336 335 334 334 336 337 336 336 336 336 336 335 335 335 335 335 335 335 335 335 334 333 333 331 330 327 320 316 314 312 310 309 310 314 317 318 318 315 314 313 310 310 312 311 310 309 309 309 309 310 309 309
305 305 306 305 303 303 303 302 303 302 304 304 304 309 311 309 308 308 306 307 309 309 310 310 310 309 309 307 308 311 310 309 314 316 318 328 334 333 333 333 332 332 333 334 335 335 335 335 334 334 335 336 336 336 336 337 336 336 336 335 335 335 336 335 335 335 334 333 332 330 327 323 318 315 313 312 311 311 316 320 320 320 317 315 314 311 311 312 312 310 309 308 309 309 308 307 309
305 304 304 304 305 306 303 302 303 303 305 304 306 312 311 308 307 306 307 309 310 310 310 309 309 308 307 307 309 311 310 310 314 315 315 326 332 330 330 330 329 330 332 332 333 335 335 335 335 334 335 336 336 336 336 336 337 337 337 336 336 336 336 335 335 335 334 333 332 330 326 322 319 316 314 313 312 312 316 321 322 320 317 316 315 312 311 311 312 311 310 309 307 307 307 305 307
304 305 304 303 305 306 303 302 303 305 305 304 308 311 308 306 306 306 308 310 310 309 309 309 308 308 307 308 311 312 312 313 315 316 318 325 329 327 328 328 328 329 331 331 331 333 335 335 336 335 335 335 336 336 336 336 336 336 336 336 337 337 336 336 335 335 334 333 332 330 327 324 322 320 318 316 314 313 315 320 321 319 316 316 315 312 312 312 312 311 311 310 309 308 307 306 306
304 306 306 304 304 304 303 302 303 304 305 304 306 308 305 305 305 306 308 308 308 307 307 308 308 308 308 310 311 312 312 313 315 317 319 323 325 326 327 327 327 328 330 331 331 333 334 334 335 335 335 336 335 336 336 336 336 334 335 336 336 337 336 336 336 335 334 334 333 331 328 327 326 325 324 321 318 315 314 315 316 316 316 317 316 314 312 312 312 311 311 312 311 310 309 308 308
304 304 304 304 304 304 304 303 302 304 304 303 304 304 304 305 305 306 306 306 306 306 305 306 306 306 306 307 309 310 311 313 314 316 318 320 322 325 326 326 327 328 330 332 332 333 333 333 334 334 334 335 335 335 335 336 336 335 336 335 336 336 335 335 335 335 335 334 334 332 330 328 327 326 326 325 322 318 315 314 314 314 316 318 319 317 314 313 313 313 313 313 312 312 311 310 309
304 303 304 304 304 304 305 304 303 304 304 303 303 303 304 304 304 305 305 305 305 305 304 304 304 304 304 304 304 305 307 310 310 312 315 318 320 323 324 324 326 328 329 330 331 332 332 333 333 333 333 333 334 335 335 335 335 336 336 335 335 335 335 335 335 335 335 335 334 333 331 330 328 327 327 327 325 322 320 318 317 315 315 317 319 319 317 317 316 315 314 314 314 315 313 311 311
304 304 304 304 303 304 305 304 303 304 304 304 304 304 304 303 303 304 304 304 303 303 303 302 301 301 301 301 301 301 302 303 304 307 312 315 318 320 322 323 325 326 328 328 329 331 331 332 333 333 334 333 333 334 334 334 335 335 334 334 335 335 335 335 335 335 335 334 334 334 332 331 329 328 328 328 327 326 324 322 320 317 316 315 317 319 319 319 318 316 315 314 314 315 314 313 313
304 304 303 304 304 304 305 304 304 305 304 304 304 304 304 302 303 303 303 303 303 302 301 300 299 299 299 299 299 299 299 299 301 304 308 312 315 317 320 321 322 324 326 327 328 330 330 330 331 332 332 333 333 334 334 333 333 333 333 333 334 334 334 334 334 335 334 334 334 334 333 332 330 329 328 328 328 328 326 324 322 320 319 316 316 317 318 319 318 316 315 315 315 314 314 314 314
304 304 303 304 304 305 304 303 304 305 304 303 303 303 303 302 302 303 303 302 302 302 301 299 299 298 298 298 298 297 297 297 298 302 305 308 311 314 318 319 321 323 324 325 326 327 327 328 329 329 330 331 331 332 333 334 333 332 332 333 333 333 333 333 333 334 334 334 333 333 333 332 331 331 330 329 329 329 328 326 324 323 322 320 317 315 316 319 320 319 319 319 318 317 316 316 315
304 304 304 304 304 305 304 303 304 306 305 303 303 303 303 302 302 302 303 302 302 301 301 299 299 298 298 297 297 297 296 296 297 298 301 305 307 311 315 317 318 319 319 320 321 321 322 324 325 325 326 328 328 329 330 331 333 332 332 332 332 333 332 332 333 333 333 333 333 333 333 331 330 330 331 330 330 330 329 328 326 324 324 323 320 317 316 319 321 321 322 322 322 320 320 319 318
304 304 305 304 305 306 305 304 305 305 305 303 302 302 303 302 302 302 302 302 301 301 300 300 299 298 298 297 297 297 296 295 296 296 297 299 302 306 309 311 312 313 314 315 316 317 319 321 321 321 322 323 325 327 327 327 330 332 332 332 332 332 331 331 331 331 331 332 332 333 333 332 330 329 329 330 330 330 330 329 327 327 326 325 324 321 318 318 320 321 322 323 323 323 322 322 321
303 304 306 305 306 306 306 306 305 305 305 303 303 302 302 302 302 302 302 302 301 301 300 299 299 298 298 297 297 296 296 295 295 295 295 296 298 301 303 304 306 309 311 311 312 313 315 316 317 318 319 320 322 324 325 326 327 330 332 332 331 331 331 330 330 330 330 330 331 332 333 333 332 331 329 329 329 330 330 330 329 329 328 327 326 325 322 319 319 321 323 324 324 324 323 323 323
302 304 306 305 305 306 306 306 306 306 306 304 304 303 302 302 302 301 302 302 301 301 300 299 299 298 297 297 296 296 295 295 294 294 294 294 295 296 297 298 301 303 305 306 307 308 310 312 313 314 315 317 319 321 322 324 326 329 331 331 331 330 330 330 330 329 329 328 329 329 331 332 332 332 330 330 329 329 329 330 330 329 329 328 328 326 325 323 321 321 322 323 324 324 324 323 323
303 305 306 304 305 306 306 307 307 307 306 304 305 305 303 302 301 301 301 301 301 301 300 299 299 298 297 297 296 295 295 294 294 293 293 293 294 294 295 296 297 298 298 300 302 304 306 308 310 311 312 313 315 317 319 321 323 326 328 328 327 327 328 327 326 326 327 327 327 327 328 329 329 329 330 329 329 329 329 330 330 329 329 328 328 327 326 325 324 323 323 323 324 324 324 324 324
303 303 303 303 305 306 305 307 307 306 305 303 304 305 303 302 301 301 300 300 300 300 300 299 298 298 297 297 296 295 294 294 294 293 293 293 293 293 294 294 294 295 295 295 298 300 302 304 306 308 309 309 311 313 316 317 318 320 322 321 321 322 322 322 322 323 325 327 326 327 327 327 327 327 328 328 328 328 328 329 329 329 328 328 328 327 326 326 326 325 324 323 324 324 325 325 325
304 301 301 302 304 305 306 307 305 304 304 303 304 304 302 301 301 300 300 300 300 300 299 299 298 297 297 296 296 295 294 294 293 293 292 292 292 292 292 292 293 293 293 294 295 296 297 299 301 303 305 307 308 309 312 313 313 315 316 316 316 317 316 316 318 321 323 325 325 327 327 327 327 327 327 328 327 328 327 327 328 328 328 328 327 327 327 327 327 326 326 325 324 324 324 325 325
304 301 301 303 305 305 306 306 304 304 305 304 304 304 302 301 301 299 299 300 300 300 299 299 298 297 296 296 295 294 294 293 293 292 292 291 291 291 291 291 292 292 293 293 294 294 295 295 296 298 300 302 303 305 307 309 310 311 313 313 314 314 313 312 314 318 321 320 321 325 326 326 327 327 327 327 327 327 327 326 327 327 328 328 328 328 328 328 328 328 328 327 325 324 324 324 325
301 300 301 304 305 305 306 307 306 305 305 303 303 304 303 302 301 299 299 299 300 300 299 299 298 297 296 295 295 294 293 293 292 292 291 291 291 291 291 291 292 292 292 293 293 293 294 294 295 296 296 297 298 300 302 305 306 308 309 310 310 311 310 310 312 316 318 317 317 320 322 322 324 324 325 326 326 326 326 326 326 326 326 327 327 328 328 328 328 328 329 329 327 326 325 324 324
298 300 303 305 305 305 305 305 305 306 306 303 301 302 303 303 301 299 299 298 299 299 299 299 298 297 296 295 294 293 293 292 292 292 291 291 291 291 291 292 292 292 292 292 293 293 293 293 293 294 294 294 295 297 298 300 301 303 304 304 305 307 307 308 310 313 314 314 315 316 316 316 317 320 321 323 325 326 326 326 326 326 325 325 325 326 327 328 328 328 328 329 329 328 328 327 325
297 300 304 307 306 306 308 307 306 307 307 304 302 301 302 304 302 300 299 298 297 298 299 298 297 297 297 296 295 294 293 293 292 292 292 291 291 291 292 292 291 291 292 292 292 292 292 292 292 293 293 293 293 294 295 296 297 298 298 298 299 301 302 304 306 307 309 310 311 312 313 313 314 315 317 318 321 322 324 325 325 325 325 326 325 325 326 326 327 328 328 328 328 329 329 329 328
298 300 305 309 308 308 310 307 306 308 307 305 303 302 303 303 302 301 300 299 297 297 298 298 297 297 296 296 295 294 293 293 293 292 292 292 291 291 291 291 291 291 291 291 291 291 291 291 292 292 292 292 292 292 293 294 294 295 295 295 296 296 298 300 301 303 304 306 307 308 309 310 310 311 311 312 314 315 318 320 322 323 323 324 325 325 325 325 325 326 327 327 327 328 328 328 328
298 300 304 309 309 310 310 303 303 307 306 304 303 303 303 303 303 303 301 299 297 297 298 297 297 296 296 295 295 294 293 293 293 292 292 292 291 291 291 291 291 290 290 290 290 290 290 290 291 291 291 291 292 292 292 292 292 292 293 293 294 294 295 296 296 298 299 300 302 303 304 305 306 307 307 307 307 309 311 313 317 320 321 322 324 324 325 325 325 325 325 326 326 327 327 327 327
300 299 301 304 303 306 308 304 304 306 305 305 304 304 306 304 303 302 300 298 297 297 298 297 297 296 296 295 295 294 293 293 293 292 292 292 291 291 291 290 290 290 290 290 289 289 289 290 290 290 290 291 291 291 291 291 291 291 291 292 292 292 293 293 293 293 294 295 297 298 299 301 302 303 304 304 304 305 306 308 310 314 316 319 321 322 324 325 325 325 325 325 325 325 327 327 327
301 299 300 300 297 301 305 303 303 304 304 306 306 304 304 302 301 300 298 298 297 297 298 297 297 297 297 296 296 295 294 294 294 293 293 292 292 291 291 290 290 290 289 289 289 289 289 289 289 289 289 290 290 290 290 291 291 291 291 291 291 291 291 292 292 292 292 292 293 294 294 295 297 298 299 301 301 302 303 304 305 307 310 313 315 317 319 321 321 322 323 324 324 325 325 325 326
300 299 298 295 294 300 303 300 300 300 301 304 306 306 304 302 302 302 300 299 298 297 297 297 297 297 297 297 296 296 295 295 294 294 293 293 292 292 291 291 291 290 289 289 289 289 288 288 289 289 289 289 289 289 289 289 290 290 290 290 290 290 290 291 290 290 291 291 291 291 292 292 293 294 295 296 297 298 300 301 302 303 305 307 309 311 313 315 316 317 319 320 323 325 325 325 325
298 299 296 294 296 300 300 300 303 303 300 301 304 305 306 307 305 302 300 301 301 298 296 297 297 297 297 297 297 296 296 295 294 294 294 293 293 292 292 291 291 290 290 289 289 289 288 288 288 288 288 288 288 288 289 289 289 289 289 289 289 289 289 289 289 289 289 290 290 290 290 291 291 292 292 293 294 295 296 298 299 300 301 302 304 306 308 310 311 313 315 316 319 321 323 324 325
296 296 294 295 299 301 300 301 302 301 298 299 302 300 301 305 306 303 301 301 301 299 297 296 296 297 296 296 296 296 296 295 294 294 294 294 293 293 292 291 291 290 290 289 289 288 288 288 288 288 288 288 288 288 288 288 288 288 288 288 288 288 288 288 288 288 288 288 289 289 289 289 290 290 291 291 292 293 293 295 296 297 299 300 301 302 303 305 307 308 311 313 315 317 319 322 323
296 296 296 297 298 298 299 298 297 297 296 297 300 300 301 303 305 305 304 301 299 300 299 296 295 296 295 295 295 295 295 295 294 294 293 293 293 293 292 292 291 291 290 290 289 288 288 288 288 288 288 288 288 288 287 288 288 288 288 288 288 288 288 288 288 288 288 288 288 288 288 288 289 289 289 290 290 291 291 292 292 293 295 297 298 299 300 301 303 304 306 308 310 312 314 317 320
298 297 297 298 297 296 297 295 294 296 297 296 297 301 304 303 302 305 305 301 298 298 298 295 295 296 295 294 294 294 294 294 294 293 293 293 293 293 293 292 292 291 290 290 290 289 288 288 288 287 287 287 287 287 287 287 287 287 287 287 287 288 288 288 288 288 288 287 287 287 288 288 288 288 288 288 289 289 289 290 290 291 291 292 294 296 297 298 299 300 302 303 305 307 310 312 315
299 298 296 296 296 297 298 295 295 296 296 296 296 299 304 302 298 302 304 299 296 296 296 295 295 295 295 294 294 294 294 294 293 293 292 292 293 293 293 293 292 291 291 291 290 290 289 289 288 287 287 287 287 287 287 287 287 287 287 287 287 287 287 287 287 288 288 287 287 287 287 287 287 287 287 288 288 288 288 289 289 289 289 290 291 292 293 294 295 296 298 299 300 301 304 308 311
Wind_Speed
9 7 6 5 4 3 2 1 1 2 2 0 3 1 4 4 2 4 6 7 2 3 0 4 5 7 6 7 9 7 5 2 4 3 4 5 6 8 9 8 12 15 13 18 23 23 22 21 20 19 17 15 14 14 15 16 16 15 14 14 13 15 17 21 25 27 25 24 23 22 20 19 18 17 17 16 16 16 14 13 12 13 13 13 13 13 14 14 13 12 14 13 11 10 10 9 7
10 8 6 5 3 2 1 1 1 1 3 2 3 3 4 2 2 6 7 5 3 3 3 7 9 11 11 13 11 7 7 4 3 6 8 9 9 10 9 8 9 13 12 15 21 23 22 21 20 19 17 15 14 15 15 15 16 15 14 14 14 15 18 20 25 28 25 24 24 22 20 20 19 18 17 16 16 16 15 14 14 14 13 12 13 13 13 14 13 13 14 13 11 10 10 9 8
9 8 6 4 3 2 1 2 1 1 2 2 4 3 3 3 3 6 7 5 1 2 3 4 7 9 9 10 7 5 3 4 6 8 10 11 8 8 10 8 8 10 11 13 19 23 22 21 20 19 17 15 15 15 15 15 15 15 14 14 14 17 18 20 25 28 27 26 23 21 21 20 19 18 17 16 16 16 15 14 15 15 14 13 13 13 14 14 13 14 14 13 12 11 10 9 8
7 7 6 5 4 2 2 2 2 4 3 4 3 4 2 2 5 5 5 3 3 2 2 4 5 6 6 7 5 6 4 4 5 4 7 10 6 5 8 9 9 11 10 11 17 22 22 21 20 18 17 15 15 15 15 15 15 15 15 14 17 20 21 23 27 29 29 26 23 22 22 20 19 17 16 16 16 16 16 15 15 15 14 13 13 12 14 15 14 13 13 13 12 10 10 9 7
7 6 6 5 4 2 2 1 2 4 4 4 2 4 3 2 1 5 5 3 5 4 4 4 3 4 7 6 3 5 6 6 5 3 5 7 6 5 6 9 11 12 11 11 16 21 22 22 20 18 16 15 15 15 16 15 15 15 14 17 21 24 24 26 29 30 29 25 22 22 21 20 18 17 16 16 16 15 16 15 15 15 14 13 13 12 13 14 13 12 13 12 11 10 9 8 7
8 7 7 6 3 2 2 1 2 3 5 4 3 4 3 1 5 5 4 6 5 4 4 4 2 3 6 6 4 7 9 5 5 6 5 4 6 6 6 8 11 12 11 11 16 21 22 22 21 18 16 14 15 16 16 16 15 14 16 22 25 26 26 27 28 28 25 23 22 21 20 19 18 17 16 16 16 16 16 16 15 15 14 13 13 12 12 12 11 10 12 12 11 10 9 8 8
9 8 7 5 3 2 3 3 4 4 5 4 4 3 1 4 11 9 7 6 2 1 2 3 2 4 4 3 5 6 6 4 4 4 3 3 5 7 7 8 11 12 10 11 17 21 23 22 20 18 16 15 15 16 17 17 16 16 21 26 27 27 27 26 25 24 23 22 22 21 20 19 18 17 16 16 15 16 15 15 15 14 14 13 12 11 10 9 7 7 10 12 12 11 9 9 10
11 8 6 4 1 1 2 3 4 4 4 4 6 7 3 6 12 10 9 8 5 3 2 3 3 4 1 3 4 4 5 5 4 2 3 4 4 6 7 8 10 12 10 11 17 22 23 22 20 18 16 15 16 17 17 17 17 20 24 27 27 27 26 24 23 22 21 21 20 20 20 19 18 18 17 16 15 14 14 14 14 13 13 11 11 10 9 9 8 8 10 12 14 13 10 10 11
12 7 4 3 2 1 1 2 3 3 4 5 7 12 13 14 15 10 8 10 10 5 3 6 4 3 2 4 6 5 5 6 5 4 4 4 4 5 6 8 9 11 11 12 18 22 23 22 20 18 17 16 16 17 18 18 19 22 25 26 26 26 24 22 22 21 20 20 19 19 19 18 18 17 16 16 15 14 13 12 12 12 11 10 11 10 11 12 11 11 11 12 14 15 13 12 13
11 6 3 2 2 2 3 3 3 3 4 5 8 16 19 19 18 14 9 10 14 7 4 7 4 4 5 5 5 5 6 6 6 6 6 6 5 5 7 8 9 10 10 12 17 22 23 23 21 19 17 16 17 18 19 20 21 22 24 25 24 23 22 21 21 20 19 19 19 18 18 18 17 16 15 15 15 14 13 11 11 10 10 10 11 12 13 14 13 13 13 13 13 15 15 13 14
7 3 3 2 3 3 5 4 3 4 4 4 8 14 17 21 18 15 13 12 16 9 5 8 4 6 7 4 4 7 7 7 5 7 8 8 8 8 9 10 10 9 8 11 17 21 23 23 21 19 17 16 17 18 19 20 21 22 23 23 22 21 21 20 20 19 19 19 19 18 18 17 17 16 16 15 14 14 13 12 12 11 11 12 13 14 14 13 12 12 12 13 13 14 15 14 16
4 1 3 2 3 3 4 2 3 4 5 4 6 12 21 23 13 10 14 12 15 11 8 9 4 6 4 1 7 8 8 9 8 8 9 10 10 10 10 11 12 10 7 10 16 21 23 23 22 20 18 17 17 18 19 21 22 22 23 23 23 21 20 20 20 19 19 19 19 19 18 17 17 17 16 14 14 14 14 14 13 13 12 13 13 14 14 12 10 9 10 12 12 14 14 14 15
3 1 4 2 3 3 3 2 3 2 4 3 4 17 25 16 12 15 16 13 13 11 10 11 8 7 2 1 8 9 10 11 12 11 11 11 12 12 12 12 11 10 9 10 14 20 24 23 23 21 20 18 17 18 19 20 22 22 23 23 23 21 21 20 20 20 19 19 19 18 18 17 17 16 15 14 13 13 13 12 12 12 12 13 13 13 13 10 8 8 8 10 11 13 14 13 14
3 2 4 2 0 2 3 1 2 1 3 2 9 23 24 9 16 21 15 12 10 8 9 9 7 7 3 3 7 12 13 13 15 15 14 13 14 14 13 13 11 10 10 11 12 18 24 24 23 22 21 20 18 18 19 20 21 22 23 23 22 21 21 20 20 19 19 18 18 17 18 17 16 14 14 14 12 12 11 10 11 12 13 13 13 13 12 10 9 8 9 10 11 12 14 14 13
5 3 3 2 2 1 2 2 2 3 4 5 15 27 22 8 19 23 19 13 10 9 3 3 5 1 4 6 7 14 17 14 16 19 19 16 15 15 13 13 11 11 11 12 11 14 21 24 23 23 23 21 19 19 19 20 21 21 22 22 22 21 20 19 19 19 19 18 18 18 17 16 15 14 13 13 12 11 10 10 11 12 14 13 13 12 12 11 10 9 10 10 12 12 13 13 13
6 4 3 3 1 1 1 2 2 1 2 8 17 26 19 12 21 21 20 14 9 16 17 16 16 6 5 8 6 11 17 14 18 22 24 21 17 15 14 14 12 12 13 13 12 12 17 22 23 24 24 23 21 19 19 20 20 20 21 21 21 20 20 19 18 18 19 18 18 18 17 16 15 14 13 12 11 11 11 11 12 13 15 15 13 13 12 11 10 11 11 11 12 13 13 13 14
4 3 4 3 1 1 2 3 4 3 4 10 18 23 13 13 24 23 19 15 10 17 24 25 23 14 2 4 3 12 17 15 20 24 26 23 20 18 18 18 16 16 16 15 14 13 14 18 22 24 24 23 22 20 19 20 19 20 21 20 20 20 19 18 18 19 19 19 18 18 17 16 15 15 14 13 13 13 13 13 14 15 16 16 15 14 13 11 11 12 12 12 13 13 14 14 14
4 2 4 2 1 2 4 3 4 4 4 9 16 19 12 10 23 27 19 17 16 18 25 28 25 22 11 3 7 15 15 15 21 24 24 22 22 22 22 21 20 20 19 18 16 15 14 15 19 23 25 24 23 22 20 20 19 20 21 21 21 20 19 19 19 18 19 19 19 18 16 16 15 15 15 14 14 14 15 15 16 17 17 17 17 16 14 12 11 14 14 13 14 14 14 14 15
6 2 3 2 1 2 5 8 8 7 6 10 14 17 13 9 20 23 15 16 19 16 22 30 29 28 17 7 13 16 14 16 21 23 22 20 21 22 24 23 22 22 20 21 19 17 15 14 16 21 25 25 25 24 22 21 20 19 20 21 21 20 20 19 19 18 19 19 19 18 17 16 16 15 15 15 16 16 17 18 18 17 17 17 16 16 15 14 13 15 16 14 15 17 16 15 15
6 5 3 2 1 1 8 12 11 12 12 12 14 16 13 14 21 19 11 13 13 10 16 24 26 28 24 9 8 12 11 13 17 22 21 18 20 20 22 23 24 23 22 22 20 19 16 14 13 17 24 26 26 25 24 23 21 19 19 19 20 21 20 20 19 19 20 20 20 19 18 18 17 17 17 18 18 19 19 19 19 18 18 17 16 16 15 15 15 16 18 17 16 17 17 17 16
5 5 4 3 6 2 6 12 14 16 16 14 14 14 13 19 20 14 12 10 7 9 17 19 20 23 24 16 3 4 5 9 12 17 20 19 20 21 21 21 22 22 22 21 20 19 17 14 12 14 21 26 27 26 26 24 22 21 19 18 19 19 20 20 20 20 21 21 21 21 20 20 19 19 20 21 21 20 21 20 20 19 18 17 17 16 16 16 16 16 18 19 17 17 17 17 17
3 5 5 7 8 4 6 12 13 15 17 16 15 11 12 19 19 14 9 4 6 15 23 21 18 19 21 17 9 2 1 6 10 13 17 19 20 21 22 21 21 20 20 21 20 19 17 13 11 12 18 25 28 27 26 25 24 23 21 20 19 19 19 19 20 20 21 21 22 22 21 21 21 21 22 22 22 21 21 21 20 19 18 18 17 16 16 16 16 17 18 18 17 17 17 17 17
2 2 8 12 10 8 12 15 15 15 15 13 12 11 14 16 15 13 9 10 15 21 23 19 16 18 18 17 10 5 6 4 5 9 13 16 18 20 21 21 20 19 20 19 19 18 16 14 12 11 15 23 28 27 26 26 25 24 22 22 21 20 19 19 19 20 21 21 22 22 22 22 22 22 22 22 21 21 21 20 19 18 17 17 17 16 16 17 16 16 17 18 17 17 16 16 16
7 2 9 16 15 13 18 21 19 16 13 12 12 12 14 12 10 13 18 20 19 19 19 18 19 20 17 15 11 9 10 9 7 6 8 11 13 17 19 20 19 18 18 18 18 18 16 14 14 12 13 20 27 29 28 27 26 25 24 23 23 22 21 20 19 19 19 20 21 22 22 22 22 21 21 21 20 20 20 19 18 17 16 16 16 16 16 17 16 15 16 17 18 17 16 16 16
9 4 10 16 17 19 22 25 23 19 15 12 11 12 13 12 10 13 19 21 19 19 20 20 20 20 19 15 12 11 11 12 12 10 9 8 9 12 14 18 18 17 17 17 17 17 16 15 16 15 13 17 24 28 28 28 26 25 25 25 24 23 23 22 20 19 19 19 20 22 22 22 22 21 20 20 20 20 19 19 18 17 16 15 16 16 16 17 17 15 14 16 18 18 17 17 17
7 9 13 15 17 21 21 22 24 22 16 11 7 10 11 12 10 7 13 22 25 25 23 21 21 19 18 14 11 11 12 12 13 13 11 8 6 10 12 16 18 16 16 17 16 14 14 15 18 18 14 15 19 24 27 27 27 27 26 25 24 24 24 23 22 22 20 19 19 20 22 22 22 21 20 20 20 20 19 17 16 16 15 15 16 17 16 15 16 16 15 16 17 18 18 18 18
12 13 13 14 15 16 19 20 25 22 12 8 4 6 10 11 7 3 15 28 29 28 24 22 21 20 17 13 11 8 11 17 15 11 14 12 9 9 11 15 18 17 15 16 14 12 11 12 17 19 17 15 17 21 23 25 27 27 26 25 24 24 24 24 24 23 22 22 21 20 21 22 23 22 21 20 21 20 19 17 16 16 16 15 16 17 16 15 15 16 16 17 17 18 19 18 19
14 11 9 13 13 12 21 22 25 19 9 13 7 5 8 9 4 6 22 31 30 30 26 25 24 22 18 10 7 5 10 18 17 12 12 16 14 9 10 13 16 18 19 19 16 13 12 9 11 16 17 17 17 20 21 23 26 26 26 26 25 24 23 24 24 25 24 23 22 22 22 23 24 23 22 21 21 21 19 17 17 17 16 15 15 16 16 15 14 15 16 17 18 18 19 19 20
10 7 5 10 9 9 20 21 23 15 9 21 9 2 9 6 7 17 28 31 29 30 28 27 26 22 18 8 5 6 12 15 13 12 11 13 15 11 10 10 10 15 17 19 20 18 15 9 7 12 15 17 17 18 20 21 24 25 26 26 26 25 24 24 25 24 24 24 23 22 21 21 23 23 22 21 21 21 20 18 18 19 17 16 15 15 16 16 16 16 16 18 19 19 20 20 20
7 5 5 7 7 6 15 19 24 16 14 26 8 1 8 4 14 26 29 27 25 27 27 26 23 18 16 11 10 13 11 11 13 13 10 8 7 8 9 7 6 11 11 13 19 20 18 12 9 10 13 17 18 18 18 20 23 25 27 27 27 27 25 25 25 24 24 23 23 21 20 20 20 20 19 19 21 22 21 20 20 20 19 17 16 16 16 17 17 17 16 18 19 19 20 20 20
6 4 5 6 3 5 12 15 21 14 15 27 8 3 7 7 20 29 28 26 24 26 27 28 27 24 21 17 17 17 15 15 17 15 11 9 4 3 6 6 7 10 8 9 16 18 19 17 14 14 14 16 19 20 20 20 21 22 24 26 26 26 25 25 25 24 24 23 23 22 20 19 18 16 16 17 19 21 21 21 21 21 19 18 17 17 17 17 17 18 17 17 19 19 20 20 21
5 4 4 5 3 5 10 10 17 11 12 23 12 3 8 10 20 29 30 31 30 29 29 33 35 35 32 25 23 24 24 24 21 20 17 14 9 5 2 5 8 10 7 7 12 15 16 14 13 14 16 18 19 19 20 21 21 20 22 22 24 26 26 26 25 24 24 24 24 23 22 21 18 16 15 16 18 19 20 20 22 22 20 19 19 19 18 18 18 19 18 19 19 20 21 21 22
4 4 2 4 5 5 7 8 18 17 10 17 14 6 6 9 19 29 32 32 32 30 30 33 34 34 33 31 31 31 30 29 28 28 24 19 15 8 3 3 5 7 7 6 8 11 12 10 8 7 10 15 19 18 18 21 20 20 22 21 22 25 26 26 26 26 26 26 26 24 23 22 19 18 18 18 18 19 19 19 20 21 22 21 21 21 20 20 20 21 21 21 22 22 23 23 23
4 4 2 2 4 4 6 5 15 21 11 11 13 10 7 9 19 31 32 30 32 30 28 30 31 32 33 33 34 34 36 36 36 35 29 25 20 12 7 5 4 2 6 6 6 7 9 11 10 7 5 5 11 17 19 19 20 21 20 19 21 23 24 26 28 31 31 29 27 26 24 23 21 21 20 20 20 20 20 20 20 21 22 23 23 23 22 22 22 23 23 24 24 24 25 25 24
3 4 2 2 3 3 4 4 8 13 11 10 11 11 11 12 18 27 30 30 31 29 26 28 30 31 32 34 34 34 38 40 39 37 33 28 23 17 12 8 7 4 2 4 5 6 6 7 9 11 8 4 4 10 15 16 16 18 18 16 18 20 22 24 27 32 34 31 29 28 26 24 23 23 23 23 22 22 21 20 19 20 21 23 24 24 23 24 24 24 24 24 24 25 25 25 25
4 4 2 4 4 3 4 3 5 6 9 11 11 10 11 13 15 20 26 29 30 29 27 28 29 31 32 33 34 35 37 38 38 38 36 32 29 23 18 15 13 9 5 5 5 6 5 5 7 9 10 8 6 7 11 11 10 12 16 16 17 17 18 21 26 31 34 32 31 29 27 26 25 26 25 25 25 24 23 21 20 20 21 22 24 25 25 25 25 24 23 22 23 24 24 25 25
2 2 2 4 3 4 4 1 6 5 7 7 9 12 12 13 14 16 22 29 30 27 26 27 28 30 31 31 32 34 35 33 35 39 38 35 33 27 22 19 15 11 12 10 6 6 5 3 4 5 6 8 9 8 9 8 7 8 12 14 15 15 14 17 23 28 31 32 32 32 30 29 28 28 28 28 28 27 25 23 22 21 21 22 24 25 26 25 24 23 23 22 22 23 23 24 25
1 1 2 3 1 4 4 4 6 5 6 4 9 16 13 13 14 17 22 25 25 24 23 24 25 27 29 29 29 29 32 34 37 40 40 38 36 32 27 23 19 18 20 18 15 15 13 9 7 6 4 4 6 10 9 8 8 9 9 10 10 12 13 15 18 20 23 28 32 33 32 32 32 30 30 30 30 29 27 26 25 24 22 22 23 25 26 26 26 25 25 25 25 24 24 23 25
2 1 2 2 0 3 3 4 4 4 5 4 10 15 11 11 13 17 22 20 20 23 23 21 23 26 28 27 27 28 34 39 41 42 42 41 40 37 34 32 29 27 26 24 21 20 18 15 15 15 12 10 7 8 9 8 9 11 10 8 6 7 9 10 13 15 15 18 25 30 32 33 32 31 32 32 32 30 27 27 26 26 25 24 24 25 27 27 27 27 27 27 27 27 27 26 26
2 2 1 2 2 1 2 3 5 5 2 4 8 11 7 8 9 12 19 19 18 23 24 22 22 25 27 27 28 31 35 39 40 40 41 42 42 41 40 38 35 32 30 29 28 26 24 22 21 20 18 17 14 8 6 5 7 11 11 10 8 5 5 7 8 9 10 13 18 23 30 33 33 33 33 32 32 31 29 27 26 28 28 27 26 26 27 28 29 29 29 29 29 29 30 29 29
3 2 1 3 4 2 2 1 3 4 2 3 4 6 6 8 9 8 12 15 15 18 21 22 22 23 25 28 32 33 34 36 37 38 39 41 42 42 41 40 38 36 35 33 32 31 29 26 24 23 21 20 18 14 11 7 4 10 12 12 11 9 10 10 8 6 5 7 10 13 21 27 29 33 34 33 33 33 30 27 26 29 30 29 28 28 28 28 29 30 31 31 31 32 32 32 32
4 2 2 4 4 2 3 1 1 1 3 5 3 2 4 5 7 7 6 9 11 12 16 19 22 24 24 27 31 32 32 34 35 36 37 39 40 40 40 40 39 39 39 36 33 32 30 28 26 24 23 22 21 19 16 14 9 3 6 6 5 5 5 6 5 4 3 3 3 5 11 15 14 17 22 27 31 32 32 29 27 27 29 30 30 30 30 30 31 32 32 33 33 34 34 34 35
3 2 2 4 2 1 4 1 2 2 1 3 3 3 2 2 5 7 7 7 8 10 12 16 20 24 24 24 27 29 30 32 33 34 36 36 38 39 39 39 39 39 38 36 34 33 31 29 27 25 25 25 24 22 19 17 16 12 8 9 8 7 7 7 8 6 2 1 1 4 7 8 6 6 9 14 18 23 26 28 28 26 27 29 29 30 30 30 31 31 32 34 34 34 35 37 37
3 5 7 4 2 2 2 1 4 3 2 1 4 3 3 2 5 7 7 6 7 9 11 13 17 21 23 23 23 25 26 27 29 31 33 34 35 37 37 37 37 36 35 35 35 34 33 32 30 28 27 27 26 25 22 20 21 20 16 15 15 13 13 12 10 7 3 2 1 3 5 5 5 6 7 9 11 14 18 21 25 27 30 31 30 31 31 30 31 30 30 31 34 35 36 38 38
4 7 8 3 4 4 1 3 5 3 2 2 4 2 2 2 4 5 6 5 7 8 8 11 14 16 19 20 20 21 22 24 26 27 29 31 32 34 35 35 35 34 34 33 33 32 32 31 31 30 29 29 28 27 25 23 23 22 19 18 17 16 17 17 14 9 5 6 6 1 2 4 4 4 5 7 8 9 11 14 17 22 29 35 37 36 34 33 32 31 31 29 30 32 35 37 38
9 7 5 3 5 4 2 2 4 3 2 3 4 2 2 1 3 4 4 4 5 5 5 7 11 13 15 18 18 18 21 23 25 26 28 29 30 32 32 33 33 33 33 32 31 30 30 30 30 30 30 30 29 28 27 26 25 23 22 21 20 19 19 20 17 13 11 14 14 8 6 8 8 8 8 8 9 8 8 9 10 11 15 23 33 39 40 39 36 34 34 33 29 27 28 30 32
9 4 3 4 4 3 2 2 2 2 3 3 4 2 1 1 1 2 2 2 4 3 2 4 7 10 12 15 17 17 19 22 24 26 27 28 29 30 31 32 33 32 32 31 31 30 29 29 28 28 28 28 28 28 27 27 27 26 26 25 24 23 23 23 21 19 18 19 20 18 17 16 15 16 16 13 12 11 10 10 11 10 9 9 15 25 34 39 42 41 37 36 34 30 29 30 31
9 3 3 3 3 3 4 4 4 4 2 2 3 3 2 1 1 2 2 3 4 3 1 1 5 7 9 11 14 16 18 20 23 25 26 27 29 29 31 32 32 32 32 32 31 30 29 29 28 27 27 27 27 26 26 26 27 27 27 27 26 26 25 25 25 24 23 22 23 22 22 21 19 19 18 15 13 14 13 12 13 14 13 12 11 12 16 23 33 41 43 43 40 37 35 34 34
9 5 5 4 3 4 4 4 3 2 1 2 2 3 3 1 3 4 3 4 4 2 2 3 4 6 7 8 9 12 15 17 20 23 24 26 28 29 30 31 32 32 32 32 31 30 30 29 28 28 28 27 26 26 25 25 25 25 26 26 26 26 26 27 26 26 25 25 24 24 23 23 23 22 21 19 17 16 16 15 15 15 14 14 14 12 10 11 17 24 33 39 41 42 41 38 37
7 4 4 4 2 4 2 3 3 2 3 3 3 3 1 2 4 5 5 4 3 2 5 5 5 5 6 7 7 9 12 14 17 19 22 23 25 27 28 30 31 32 32 31 31 30 29 29 29 28 28 27 26 26 25 25 25 24 24 24 24 25 25 26 26 25 25 25 25 26 26 25 25 26 25 25 25 22 20 19 18 17 16 14 15 15 14 12 13 14 16 20 26 33 38 40 41
4 0 4 4 3 3 1 2 0 2 4 4 3 3 2 2 2 4 5 3 2 4 5 5 4 4 5 6 7 8 10 12 15 17 19 21 22 24 26 28 30 30 30 30 30 29 29 28 28 27 27 27 26 26 25 25 25 24 23 23 23 24 24 24 24 24 23 24 24 24 25 25 26 27 27 27 27 27 25 23 21 20 20 19 19 18 17 17 17 16 15 15 18 22 27 33 39
2 1 4 3 1 3 2 3 4 2 2 3 2 0 4 3 3 5 4 3 3 3 3 1 0 1 3 4 6 8 9 11 13 15 17 18 20 21 23 26 28 29 29 29 28 28 28 27 27 27 26 26 26 25 25 25 24 24 24 23 23 22 22 23 23 23 23 23 23 23 23 24 24 25 26 27 28 28 28 28 26 24 23 24 24 24 23 22 23 23 22 21 19 19 21 24 28
2 3 2 3 2 5 2 1 1 1 1 3 1 1 3 2 3 5 4 4 5 4 4 4 4 4 3 3 5 6 8 9 11 13 14 16 18 19 21 23 26 28 28 28 27 26 26 26 26 26 25 25 25 25 25 25 24 24 24 24 24 23 22 22 23 23 23 23 23 22 23 23 24 24 25 26 27 28 29 29 29 28 27 26 26 27 27 28 28 28 26 26 25 23 22 22 23
1 3 2 3 1 3 2 1 4 4 1 3 2 2 3 1 1 4 4 5 7 6 7 7 7 6 5 3 3 5 7 8 10 12 13 15 17 19 19 20 23 26 27 27 26 24 24 24 24 25 25 25 25 25 25 25 25 25 25 25 25 24 24 23 23 23 23 23 23 23 24 24 24 25 26 26 27 27 28 29 30 30 30 29 28 28 28 28 29 29 29 28 27 27 26 26 25
4 0 2 1 3 2 3 3 2 3 2 4 5 4 2 3 3 3 6 9 8 7 7 8 8 8 6 4 3 4 6 8 10 11 13 14 16 18 19 19 21 23 25 26 25 23 22 22 22 22 23 24 24 24 24 24 24 25 25 25 25 25 25 25 25 25 24 24 25 25 26 26 26 26 27 27 28 29 29 29 29 30 30 31 31 30 30 30 29 29 30 29 29 29 29 28 27
3 2 3 2 3 2 1 2 2 1 0 3 4 5 2 5 4 5 9 9 8 7 6 7 11 10 7 5 4 4 6 8 9 11 13 14 15 17 18 19 19 21 23 25 25 24 23 22 21 21 21 22 22 23 24 24 24 24 24 24 24 25 25 26 26 27 27 27 27 27 27 28 29 29 29 29 29 30 30 31 30 30 30 30 31 31 31 32 31 30 30 30 30 30 30 30 30
3 4 4 3 2 2 1 1 2 3 2 1 1 4 5 5 3 6 9 8 8 9 8 10 14 12 9 8 6 6 7 8 9 10 12 14 15 17 17 18 19 19 21 23 24 25 25 24 22 21 21 21 22 22 23 23 23 24 24 24 25 25 25 26 26 27 28 29 30 30 30 30 30 31 31 32 32 32 32 32 32 32 32 31 30 31 31 32 32 32 31 31 31 31 31 31 32
2 2 1 0 1 3 3 2 3 2 2 3 2 3 7 6 3 5 7 7 11 13 13 14 16 14 11 10 7 7 8 8 9 10 12 13 15 16 17 18 19 19 20 22 23 24 26 27 24 22 21 21 22 22 22 22 22 22 24 24 25 26 26 26 27 27 28 30 31 32 32 33 33 33 33 33 34 34 34 34 34 34 33 33 32 31 31 31 32 32 32 32 32 32 32 32 32
Wind_Direction
251 254 265 271 289 291 353 12 56 341 75 209 275 205 256 224 239 309 309 299 290 274 182 104 88 90 97 108 127 112 69 138 176 124 162 183 166 176 161 139 135 145 159 161 171 182 183 182 179 177 177 178 182 182 183 179 173 172 173 174 175 171 163 157 156 157 159 157 153 149 149 151 153 155 154 152 150 150 146 139 133 127 125 122 125 133 134 136 136 138 146 151 162 166 165 161 158
245 244 250 258 279 279 257 48 81 325 58 312 272 180 252 348 3 280 265 262 196 191 123 110 94 84 97 112 118 98 42 34 141 137 144 164 167 175 166 150 139 141 153 161 169 179 183 183 182 180 179 180 182 183 184 182 175 174 175 174 175 169 163 158 155 155 155 153 150 148 150 153 155 157 155 154 153 153 151 142 138 137 136 135 134 139 143 145 144 146 150 153 164 164 161 159 159
238 236 234 239 227 214 199 55 110 143 112 233 263 229 278 351 272 245 229 237 190 139 108 94 82 76 90 102 100 106 69 59 110 130 145 166 171 169 171 163 149 148 152 158 169 177 181 182 184 182 179 181 181 182 184 183 180 177 175 177 172 163 159 154 152 153 154 151 149 149 152 156 157 158 156 155 156 155 155 148 144 146 147 144 141 146 153 154 153 156 157 158 166 164 160 161 157
224 225 217 208 182 149 91 67 151 142 165 211 263 263 262 251 244 245 230 243 29 41 30 26 45 47 58 91 107 107 123 125 115 125 156 168 173 171 170 166 163 164 162 163 170 175 180 182 183 183 181 181 179 180 181 181 181 177 175 175 162 152 149 148 150 152 151 149 149 151 154 158 158 158 158 158 158 156 157 153 150 152 152 151 148 153 161 166 168 169 169 168 172 171 167 167 164
204 207 195 187 161 126 97 92 136 148 198 190 234 265 240 182 263 290 290 4 44 50 39 34 35 40 54 83 120 114 127 139 129 134 158 163 170 185 176 170 169 169 170 171 174 176 179 181 182 182 182 181 178 177 179 179 177 175 172 163 152 146 144 145 147 149 149 149 151 153 155 158 158 158 159 160 161 157 157 156 154 155 155 157 158 160 164 169 177 187 190 186 182 183 181 178 175
188 186 177 161 133 138 130 173 180 199 225 182 212 255 229 36 7 318 328 26 56 73 62 64 70 69 67 66 81 125 134 132 139 144 150 148 154 179 192 176 170 171 174 178 179 178 178 179 180 181 181 180 176 176 175 174 172 172 165 155 149 145 143 143 146 148 150 151 153 155 156 158 160 160 160 161 161 159 159 158 156 156 158 164 168 173 173 166 170 187 199 201 198 197 195 189 180
175 170 167 146 108 119 128 198 200 218 245 200 220 251 188 343 342 332 337 358 28 128 93 88 107 88 77 94 88 116 139 131 138 144 145 144 148 174 196 182 172 173 178 184 183 181 180 179 179 179 180 178 174 173 171 168 167 165 158 153 150 147 145 146 148 151 153 155 156 157 159 161 164 163 162 162 162 162 161 160 161 161 165 173 182 189 192 186 188 198 201 206 211 213 204 187 179
170 155 145 132 72 51 128 208 214 210 247 253 265 274 277 312 313 311 310 307 293 263 166 152 151 101 89 169 110 99 130 133 139 162 154 145 149 170 194 191 180 174 177 184 183 183 181 179 178 179 178 175 173 171 169 165 161 159 156 154 152 150 150 151 152 155 157 157 158 161 163 165 168 169 166 164 163 165 164 164 167 170 175 185 199 207 221 232 240 235 219 214 215 218 211 187 181
161 145 126 120 118 109 213 234 241 223 255 277 283 287 294 295 288 282 283 289 284 265 201 186 158 131 152 111 101 117 136 142 156 169 160 159 153 163 193 199 190 173 169 177 182 184 181 179 178 178 176 173 173 170 167 163 160 158 157 156 155 153 154 156 158 159 161 161 162 166 169 169 171 173 173 171 168 168 169 172 175 182 187 200 218 233 252 258 258 252 238 225 220 221 217 199 187
152 147 135 100 131 168 247 238 237 238 259 265 278 284 294 301 295 284 273 277 272 260 198 193 173 158 143 100 105 131 134 140 160 163 164 180 175 176 192 199 195 176 164 169 179 183 181 180 178 177 176 172 172 171 168 164 161 160 159 160 158 157 159 162 162 163 166 167 168 170 174 175 174 176 181 181 178 178 180 185 190 197 207 221 237 250 261 267 268 261 247 232 224 221 219 208 193
140 146 130 96 143 178 223 230 246 261 283 298 288 286 315 327 317 291 275 268 266 266 191 185 185 155 128 99 142 138 135 141 159 159 164 184 188 191 196 196 190 182 168 165 175 182 182 179 178 177 175 172 172 171 169 166 163 163 163 163 162 162 164 166 167 170 172 173 174 175 179 181 179 180 186 190 192 194 195 200 206 215 226 236 246 255 263 268 269 262 248 236 227 218 215 209 197
129 137 96 116 179 198 208 215 246 269 303 322 306 320 345 340 341 319 293 271 255 262 214 185 180 160 118 77 151 148 146 143 159 163 169 185 192 196 201 199 188 183 171 165 173 180 183 180 177 176 176 173 172 173 172 170 167 166 167 166 166 167 170 171 173 176 178 180 180 180 185 188 185 184 186 192 201 205 207 210 217 227 236 247 255 262 269 267 264 259 244 234 223 213 210 207 198
107 127 97 138 193 177 176 192 239 289 313 303 333 342 348 345 1 346 320 298 256 251 222 202 202 180 104 152 154 165 161 147 160 166 174 184 194 198 203 204 192 184 172 166 172 178 183 181 178 177 176 175 173 174 175 173 172 172 172 172 172 173 174 176 178 181 183 187 187 186 190 193 191 188 188 193 199 204 209 217 229 240 249 259 267 272 277 271 266 254 239 232 219 212 211 208 198
66 54 103 168 221 125 169 203 245 259 256 313 3 347 345 351 355 348 356 343 279 261 225 203 197 185 117 136 170 187 173 150 158 166 177 186 194 198 204 206 196 189 177 170 170 178 184 183 180 179 177 177 175 174 177 178 178 178 178 178 179 180 181 182 184 186 189 191 191 192 194 196 196 195 194 197 199 203 214 232 244 252 258 264 271 277 281 280 272 248 235 234 223 217 215 213 204
49 22 90 116 9 30 189 212 240 209 229 352 0 346 341 342 352 352 8 352 304 343 1 84 58 201 178 176 204 197 175 154 158 167 177 184 194 199 206 206 200 195 185 178 171 175 185 185 183 182 181 180 178 175 177 182 182 184 184 184 185 186 188 189 191 192 194 195 195 196 196 197 200 201 201 204 210 223 237 248 254 261 264 265 270 277 281 281 270 241 230 233 226 221 217 215 211
44 31 77 74 15 235 250 330 350 220 246 353 354 352 347 333 352 352 351 344 330 23 44 36 24 12 200 200 239 191 170 159 159 167 175 182 191 196 203 204 202 199 193 187 179 176 185 189 187 185 186 184 181 176 176 182 184 187 188 190 191 191 192 195 197 197 198 199 199 197 195 198 202 206 210 218 229 242 250 256 262 267 269 270 272 275 278 278 264 237 229 235 231 222 217 217 215
38 54 71 62 104 116 12 19 17 305 292 345 350 360 356 327 347 346 348 11 22 42 48 33 29 30 3 250 262 177 168 163 162 168 175 181 188 192 199 202 200 197 196 193 190 187 186 192 193 191 191 188 185 180 178 181 184 188 192 195 196 197 197 199 202 201 200 201 201 199 199 200 203 210 218 228 238 247 254 260 264 267 270 272 273 273 272 269 257 238 228 230 233 226 219 218 219
41 91 89 107 110 38 22 48 13 328 312 341 348 357 359 338 345 345 351 9 17 38 36 28 37 35 26 103 145 166 168 165 166 172 178 182 188 192 196 200 201 198 196 194 195 197 192 193 197 198 196 193 190 185 183 183 186 190 194 199 200 202 202 202 203 203 202 202 202 202 206 207 209 218 227 235 244 251 255 258 260 263 266 269 271 270 267 262 252 239 230 225 230 230 223 220 221
46 72 99 110 64 336 30 45 22 2 332 334 350 354 358 357 344 348 354 342 356 29 19 14 24 22 21 91 138 157 165 167 170 177 184 188 192 196 197 199 201 201 199 196 196 199 199 198 201 205 203 199 195 191 189 187 188 191 195 201 204 205 205 205 203 202 202 204 207 208 210 215 220 227 237 245 252 255 255 256 256 257 260 263 266 266 264 259 250 238 231 228 229 230 227 224 222
26 37 82 64 347 291 35 31 9 357 344 338 348 350 350 352 347 351 354 331 348 25 9 4 2 0 1 8 145 153 161 171 177 182 189 196 199 204 204 203 202 203 203 200 199 199 200 204 209 211 207 204 200 196 195 193 192 192 195 200 206 208 208 208 207 207 205 207 213 215 218 223 230 236 243 248 251 253 254 255 253 253 254 257 260 262 262 260 254 241 232 229 231 230 228 225 223
356 47 98 344 354 348 21 12 355 351 349 339 340 349 346 342 342 343 354 347 344 346 347 352 346 352 358 348 338 136 165 186 190 191 195 199 203 208 209 209 206 205 205 202 202 202 202 207 216 216 209 207 205 201 199 199 197 195 196 198 204 209 212 213 214 214 214 215 219 223 227 230 237 241 244 247 248 250 252 254 253 251 251 252 256 259 260 260 259 250 238 233 233 232 228 225 225
348 61 59 357 7 346 333 352 347 344 343 337 341 351 335 330 329 328 345 348 293 313 327 337 341 353 1 351 339 351 248 219 214 208 204 203 207 211 212 209 204 203 205 204 205 208 209 212 221 223 213 207 206 206 203 203 203 201 199 199 202 207 211 216 219 221 221 223 225 228 231 233 237 240 244 246 247 249 250 252 253 252 252 252 253 256 258 259 259 256 248 240 235 234 229 224 224
58 25 10 353 356 329 322 338 337 337 338 334 335 332 325 325 326 323 312 297 302 312 323 330 330 338 352 356 344 330 341 311 252 232 222 216 213 213 215 211 205 204 205 208 212 213 216 219 220 223 218 208 205 207 207 208 209 208 206 205 207 209 211 215 219 223 226 227 229 230 232 234 236 238 242 245 245 247 249 251 252 253 254 254 252 253 255 255 257 258 254 246 239 238 234 228 227
46 328 340 343 338 328 327 331 328 330 328 322 322 318 320 320 317 320 311 309 317 323 325 321 317 317 328 348 354 343 338 327 323 311 270 251 235 222 217 214 211 213 214 214 218 220 222 223 215 216 221 209 205 207 209 211 213 212 212 213 213 214 216 218 220 223 226 230 231 233 234 235 236 239 242 243 244 246 248 249 251 253 254 257 255 251 249 249 252 255 255 250 244 243 241 236 233
37 338 326 331 328 331 334 335 333 329 321 320 318 310 310 314 314 308 312 324 336 332 325 321 317 310 311 334 2 3 345 320 313 315 309 298 269 248 230 220 217 219 225 226 227 230 230 225 212 210 216 210 208 209 211 214 216 216 216 218 219 219 222 223 225 226 228 231 233 235 236 237 239 242 244 245 245 246 247 247 248 251 255 261 260 252 245 243 245 248 252 251 247 247 245 242 238
355 322 316 318 321 331 338 341 344 337 325 323 312 307 312 329 337 302 323 343 343 337 332 332 330 323 316 317 341 11 16 347 315 295 295 302 279 260 241 228 226 220 220 223 226 229 226 222 213 211 213 213 214 214 216 217 218 220 220 221 222 224 227 227 229 231 232 234 236 239 240 242 244 247 249 248 247 247 247 247 248 253 257 265 266 256 246 244 244 243 246 248 249 249 248 246 244
324 317 308 315 320 337 354 353 355 355 349 350 300 279 311 334 357 316 339 346 345 343 342 342 339 336 332 313 320 3 22 6 351 318 290 279 266 256 246 234 232 226 215 212 215 216 213 215 216 216 215 215 220 221 222 223 223 224 224 225 226 228 230 230 232 234 235 236 238 242 243 244 246 249 252 251 248 247 247 248 252 257 259 266 271 263 253 251 249 246 246 246 247 248 250 251 249
321 324 314 330 337 7 14 2 1 6 9 355 314 257 332 347 14 335 340 344 345 345 342 346 344 342 344 328 303 323 356 358 5 2 319 285 264 260 271 257 253 250 236 222 213 209 209 216 220 220 220 220 225 230 230 228 227 228 229 230 230 230 231 232 234 235 236 238 240 242 243 244 245 248 251 251 248 246 246 247 252 257 259 264 271 269 261 258 258 254 252 248 245 245 247 249 250
331 349 345 344 358 31 14 360 0 8 4 353 336 259 358 2 346 339 346 349 348 347 345 347 347 346 352 346 315 345 351 340 347 5 348 301 262 252 275 275 292 292 270 248 231 217 213 222 230 227 229 228 231 238 240 236 231 229 230 231 231 231 231 232 234 236 238 240 240 239 240 242 243 246 250 250 246 244 244 245 252 258 260 262 266 269 265 262 262 259 256 252 248 246 247 250 251
9 16 39 359 360 18 1 356 1 7 4 359 10 128 347 329 347 352 359 1 358 358 359 359 359 4 10 20 35 35 12 342 356 6 3 347 282 266 284 282 317 314 295 272 252 232 220 225 235 235 236 235 236 238 242 244 239 233 231 231 231 229 229 232 234 235 237 239 238 236 236 239 241 245 250 251 246 245 245 244 250 256 258 260 262 265 262 262 264 262 260 257 255 255 257 258 258
17 358 35 18 8 339 340 355 7 6 355 0 29 110 356 359 2 10 20 24 28 24 22 26 35 52 60 62 63 60 45 32 33 29 28 37 28 321 302 265 280 297 287 261 255 243 228 226 233 240 244 242 240 238 240 246 245 242 240 239 238 235 232 233 234 235 235 236 237 236 234 235 239 243 250 255 253 252 250 246 249 253 254 256 259 260 259 259 262 264 264 261 261 263 264 266 266
24 18 10 1 5 326 328 357 13 358 344 6 35 76 15 14 5 18 31 36 44 38 33 39 48 61 69 69 64 59 52 47 46 44 44 48 49 35 328 257 270 288 288 254 244 240 232 229 231 239 246 247 246 244 243 246 248 248 247 247 247 245 238 234 233 236 238 237 237 237 235 236 239 243 249 255 258 260 257 253 254 255 252 254 257 257 257 259 261 264 265 263 263 264 266 268 268
33 44 11 350 352 340 334 354 8 1 357 22 43 64 26 5 4 22 32 35 43 40 35 39 44 51 58 62 59 53 50 48 47 47 48 49 54 59 37 335 298 276 271 260 234 230 236 242 244 246 251 248 249 252 250 248 251 252 251 254 254 246 240 237 233 233 237 239 239 238 238 239 238 240 247 255 260 262 262 263 261 258 253 252 254 255 257 260 262 264 264 263 263 263 263 265 267
7 24 34 12 346 328 334 339 4 11 28 43 49 62 40 8 15 27 30 32 41 39 34 37 40 44 49 54 55 52 51 50 48 49 51 52 57 65 60 32 12 289 262 263 239 231 238 247 255 260 276 266 251 255 258 256 254 254 254 258 258 251 244 242 240 235 232 233 238 240 241 241 240 239 244 253 260 263 263 266 267 263 257 252 252 253 256 259 261 262 261 261 262 262 262 264 267
317 346 352 342 336 293 318 329 350 13 41 46 46 52 35 18 21 28 27 31 41 39 34 39 41 43 46 48 50 50 51 50 49 51 55 55 57 60 57 44 34 33 313 294 276 258 245 246 249 247 255 280 257 250 260 267 264 261 262 259 256 258 252 248 246 242 235 229 232 239 243 243 241 242 244 250 258 265 266 265 267 268 263 257 253 252 255 256 258 259 259 260 261 263 265 268 271
273 306 305 303 325 294 289 321 332 13 52 42 47 53 36 25 18 22 27 33 41 39 36 39 41 44 46 47 48 48 49 48 48 52 56 57 57 57 56 53 47 46 41 12 314 284 267 258 249 243 249 257 263 256 257 271 281 278 279 274 265 264 261 258 253 248 243 235 230 235 242 244 244 245 246 249 256 265 268 266 267 269 268 263 257 254 254 255 257 258 260 263 264 266 268 271 272
266 276 295 287 285 296 290 10 345 3 69 46 56 61 40 32 21 13 26 36 37 34 36 37 39 44 45 47 49 49 50 48 49 52 54 57 58 57 56 54 52 49 47 41 21 13 17 341 276 261 258 252 257 260 255 269 289 290 287 285 283 279 276 274 266 256 249 240 231 230 236 239 242 247 249 250 255 262 268 268 267 268 268 267 264 262 259 257 259 261 263 265 264 264 266 269 271
360 235 258 296 247 280 292 83 11 5 83 54 60 65 41 33 30 14 25 40 35 26 33 38 40 46 46 45 47 49 50 51 53 53 52 55 56 56 55 51 48 47 45 46 44 41 42 40 29 14 346 300 270 260 253 261 272 275 280 288 302 304 298 294 290 279 260 244 233 229 233 235 236 242 248 251 255 260 266 268 268 268 268 270 271 269 263 258 258 259 261 262 262 262 263 266 267
358 315 239 318 334 269 295 85 30 1 89 63 60 67 43 27 36 26 25 38 40 29 31 37 41 47 46 43 42 46 49 51 53 52 52 53 53 55 54 52 49 48 47 46 44 41 41 40 37 31 22 17 354 286 261 263 271 270 269 272 297 329 326 316 310 304 290 269 251 239 238 238 237 237 240 247 252 257 265 268 269 270 270 269 271 272 267 261 257 257 257 259 260 261 263 264 262
355 326 307 334 338 341 342 49 7 346 107 104 69 70 53 24 29 38 30 30 41 38 34 36 43 49 49 47 46 46 47 49 50 50 51 52 53 53 53 52 50 47 46 42 40 39 38 36 34 32 30 29 23 354 307 286 274 265 258 254 257 280 302 301 298 298 303 297 279 258 247 245 247 245 239 241 247 254 261 267 271 272 271 270 270 272 271 266 260 257 257 258 259 259 260 262 262
332 287 282 332 333 357 332 12 5 344 54 58 44 55 46 22 15 29 29 26 35 38 37 36 40 48 51 50 50 49 49 49 48 48 49 51 52 53 53 52 50 47 45 42 39 38 38 36 34 32 32 32 31 23 7 355 293 255 248 244 246 256 269 278 286 288 291 295 293 276 256 251 256 255 248 244 245 247 253 263 273 273 271 269 269 271 273 273 269 262 258 257 258 258 260 262 265
327 269 236 298 307 321 313 215 132 40 32 1 340 64 42 8 16 16 9 25 30 31 39 37 36 42 46 47 48 49 50 50 50 49 49 50 52 53 54 53 52 50 48 46 42 40 39 36 33 31 31 31 32 30 21 17 20 313 261 259 266 280 294 312 344 352 332 320 313 286 256 252 266 267 258 255 253 250 251 257 268 274 273 269 268 271 273 274 272 268 264 260 258 260 262 264 267
342 320 299 303 277 289 320 285 143 106 60 331 324 94 97 358 21 10 349 15 30 25 37 41 38 41 43 44 46 47 49 50 50 50 49 50 50 51 52 52 53 52 51 49 46 43 41 37 34 33 33 32 31 29 23 20 29 39 37 33 37 45 42 37 43 45 36 40 315 273 255 246 268 286 270 268 268 265 261 259 262 269 272 271 269 270 270 270 269 269 268 264 261 261 261 262 266
313 334 352 353 124 127 340 68 114 122 166 356 6 48 92 31 11 359 341 357 28 26 27 36 40 42 43 44 45 46 49 51 50 48 48 48 49 49 50 51 51 51 51 49 48 46 44 41 38 35 34 33 31 28 26 22 26 35 38 35 35 40 38 35 33 35 48 72 82 250 262 263 265 274 271 273 273 268 267 265 263 263 264 265 267 266 267 269 268 268 270 267 262 259 258 259 262
269 321 351 10 113 121 80 109 125 146 147 56 4 2 71 27 340 346 343 347 18 24 17 22 35 44 47 47 47 48 51 54 54 51 49 48 48 49 49 49 49 49 48 48 47 46 45 43 40 37 36 34 31 28 26 25 24 26 29 27 24 21 21 23 19 12 7 6 21 98 258 301 294 288 291 294 290 277 273 268 262 261 260 259 259 260 264 268 268 267 268 268 264 258 256 258 260
283 312 5 51 79 80 58 97 138 159 94 42 327 291 101 44 312 332 345 340 356 17 16 7 24 46 53 52 51 51 53 55 55 53 51 50 49 49 48 48 47 46 45 45 45 44 43 42 40 38 38 36 35 30 25 24 22 21 22 20 19 15 11 13 12 4 353 345 349 349 326 322 318 319 323 318 314 313 311 297 280 274 270 265 260 258 259 262 264 265 264 264 265 262 259 257 259
303 324 47 43 45 54 34 31 100 87 44 4 314 294 127 78 297 294 319 291 293 329 33 3 16 41 52 52 51 51 54 54 53 52 51 49 49 47 46 44 43 42 41 41 41 41 41 41 40 39 38 36 34 32 28 25 22 21 21 18 16 13 8 7 8 6 2 353 349 344 334 328 319 310 307 304 302 302 306 311 309 309 318 311 284 268 264 262 262 263 263 262 261 261 260 256 256
356 33 59 34 356 14 20 356 34 65 23 274 284 333 56 82 236 234 263 279 292 324 42 33 16 33 49 53 49 48 52 52 49 47 45 44 44 43 42 41 39 38 37 37 37 37 37 37 37 38 38 37 35 32 30 28 26 24 23 22 19 17 12 8 7 6 4 359 356 351 342 337 327 313 306 302 298 295 295 296 301 307 310 315 318 305 288 278 272 266 261 260 260 261 261 258 257
15 23 49 62 3 11 19 343 6 60 287 258 279 344 38 352 251 229 251 276 294 346 85 94 52 47 58 64 58 51 51 50 48 45 41 39 39 39 39 38 36 35 34 34 34 34 34 34 34 35 35 35 35 34 32 31 29 27 25 24 22 19 15 11 8 6 3 359 356 351 346 343 340 336 333 329 322 316 312 308 305 308 310 304 304 310 311 309 304 285 268 262 261 260 260 260 260
5 13 67 94 86 44 16 314 347 309 279 294 337 8 39 303 276 219 212 246 253 128 124 117 94 81 76 78 74 60 53 49 44 42 39 37 36 36 36 35 34 33 32 31 32 32 33 32 32 32 33 32 31 31 31 30 30 29 25 23 21 18 16 15 12 9 6 1 356 352 348 345 343 342 341 340 339 334 328 323 315 308 307 303 300 305 307 306 316 318 302 289 281 272 265 262 263
341 133 109 99 128 114 157 230 232 285 288 300 346 23 182 228 284 216 201 219 191 137 131 126 111 93 78 74 70 62 55 47 40 37 35 33 32 33 33 33 32 32 31 30 30 29 29 30 31 30 31 30 29 28 28 28 28 27 25 22 20 18 16 16 15 13 10 5 0 356 351 346 342 340 339 338 337 337 333 330 324 313 306 302 299 300 303 303 303 308 314 317 315 304 288 275 269
306 83 89 45 150 144 148 182 191 224 309 317 338 283 217 221 284 257 226 241 225 168 155 166 319 2 22 33 42 44 39 35 30 28 28 27 26 26 28 29 28 29 29 29 28 27 26 27 28 28 29 28 28 27 26 26 25 24 23 22 20 17 14 12 11 10 9 7 4 360 356 352 347 342 338 336 334 335 334 332 330 326 317 309 304 300 297 297 299 302 304 304 306 310 308 301 293
279 45 52 274 205 140 123 300 295 86 58 296 297 265 284 321 297 258 228 245 253 226 210 225 253 279 306 343 11 20 18 17 16 15 16 17 18 19 20 22 23 24 25 26 26 24 24 23 23 24 25 25 25 25 24 23 22 21 20 20 19 17 16 13 10 8 6 3 0 358 355 352 349 346 342 340 337 334 333 331 330 330 327 321 315 309 304 299 297 296 297 296 293 293 295 299 303
79 35 307 278 66 90 94 33 354 29 39 286 309 295 290 334 304 257 220 233 253 243 224 224 239 250 261 289 335 355 357 2 1 1 2 2 6 10 12 13 15 18 20 21 22 21 21 20 20 20 20 21 22 21 21 19 18 18 17 16 15 14 15 14 12 9 5 2 359 356 354 351 348 346 343 340 337 334 332 331 328 327 327 327 324 320 315 310 305 300 294 290 286 285 285 287 288
83 132 285 62 71 13 19 65 25 15 348 302 310 312 267 208 222 229 213 221 232 236 234 231 233 234 244 268 297 328 338 345 348 351 350 350 353 358 2 4 5 11 14 15 17 16 17 17 16 17 17 18 17 17 18 17 15 15 13 13 11 9 9 8 7 6 4 2 360 357 355 352 349 346 342 339 336 334 333 331 330 328 325 324 324 323 321 318 315 310 304 296 289 284 281 282 283
38 26 2 51 113 141 34 63 99 129 322 309 319 331 288 225 216 196 206 216 212 216 230 227 224 225 236 260 283 311 325 334 339 344 344 341 342 345 350 353 354 359 4 7 10 10 10 11 12 13 12 12 13 13 13 13 13 12 10 8 7 5 4 3 2 1 360 359 358 356 354 352 350 347 344 342 339 336 334 332 331 330 327 324 322 321 321 319 318 316 312 307 301 294 286 281 279
1 30 25 2 8 83 82 32 87 120 139 212 317 315 276 247 207 188 205 212 201 203 209 215 219 222 235 252 271 299 314 323 328 337 339 335 333 333 337 341 342 346 352 356 1 5 5 4 3 7 8 7 8 9 9 9 9 7 6 4 3 2 360 358 357 356 355 355 354 353 352 350 349 347 345 344 341 339 337 334 332 331 329 327 324 321 319 318 317 315 314 312 308 303 295 287 280
136 97 87 115 360 70 81 335 321 78 135 167 158 279 274 259 211 200 203 197 200 205 204 209 217 221 232 246 261 282 296 306 314 326 333 331 327 325 325 328 330 333 339 344 350 356 360 358 355 358 2 3 3 4 4 4 4 3 2 1 359 358 357 355 353 352 351 351 350 350 349 348 347 347 346 344 343 341 339 337 335 332 331 329 326 323 320 319 318 316 314 312 311 309 304 296 287